GW5660 Weather Reports


time (UTC)temp
C
wind
direction
speed
KPH
gust
KPH
rain 1hr
cm
rain 24hr
cm
rain mn
cm
humidity
%
barometer
mb
20260507170020 18 149 14.5 20.9 0.00 0.05 0.05 57 1014.3
20260507165050 18 150 14.5 20.9 0.00 0.05 0.05 55 1014.3
20260507164040 18 150 11.3 17.7 0.00 0.05 0.05 54 1014.3
20260507163029 19 157 16.1 22.5 0.00 0.05 0.05 51 1014.3
20260507162020 19 151 17.7 27.4 0.00 0.05 0.05 50 1014.2
20260507161029 19 149 16.1 25.7 0.00 0.05 0.05 50 1014.2
20260507160021 19 151 16.1 25.7 0.00 0.05 0.05 51 1014.2
20260507155029 19 147 16.1 22.5 0.00 0.05 0.05 52 1014.2
20260507154020 19 148 17.7 24.1 0.00 0.05 0.05 51 1014.4
20260507153029 20 146 17.7 25.7 0.00 0.05 0.05 51 1014.4
20260507152020 20 161 19.3 25.7 0.00 0.05 0.05 52 1014.5
20260507151028 20 150 17.7 27.4 0.00 0.05 0.05 50 1014.8
20260507150020 20 162 17.7 27.4 0.00 0.05 0.05 51 1014.8
20260507145049 20 167 19.3 27.4 0.00 0.05 0.05 51 1014.8
20260507144020 19 165 17.7 25.7 0.00 0.05 0.05 53 1014.9
20260507143030 20 162 17.7 27.4 0.00 0.05 0.05 50 1014.8
20260507142040 20 164 19.3 27.4 0.00 0.05 0.05 48 1015.1
20260507141029 20 166 19.3 27.4 0.00 0.05 0.05 44 1015.0
20260507140020 20 166 20.9 30.6 0.00 0.05 0.05 40 1014.9
20260507135030 20 170 20.9 27.4 0.00 0.05 0.05 42 1015.1
20260507134020 21 172 20.9 35.4 0.00 0.05 0.05 43 1015.2
20260507133029 20 177 20.9 33.8 0.00 0.05 0.05 45 1015.1
20260507132042 20 185 20.9 37.0 0.00 0.05 0.05 46 1015.2
20260507131029 20 167 24.1 33.8 0.00 0.05 0.05 47 1015.3
20260507130024 20 184 20.9 30.6 0.00 0.05 0.05 48 1015.5
20260507125028 20 192 19.3 27.4 0.00 0.05 0.05 50 1015.5
20260507124020 20 196 24.1 30.6 0.00 0.05 0.05 48 1015.6
20260507123048 19 179 19.3 29.0 0.00 0.05 0.05 62 1015.5
20260507122020 18 180 17.7 29.0 0.00 0.05 0.05 68 1015.6
20260507121108 18 189 19.3 30.6 0.00 0.05 0.05 66 1015.8
20260507120020 18 181 22.5 30.6 0.00 0.05 0.05 71 1016.0
20260507115028 18 195 22.5 35.4 0.00 0.05 0.05 72 1016.0
20260507114020 18 176 19.3 29.0 0.00 0.05 0.05 73 1015.9
20260507113029 18 182 22.5 30.6 0.00 0.05 0.05 75 1015.8
20260507112020 18 196 22.5 37.0 0.00 0.05 0.05 74 1015.9
20260507111028 18 171 20.9 29.0 0.00 0.05 0.05 75 1015.9
20260507110020 18 196 20.9 30.6 0.00 0.05 0.05 74 1016.0
20260507105028 17 173 19.3 27.4 0.00 0.05 0.05 74 1015.9
20260507104020 17 168 24.1 33.8 0.00 0.05 0.05 74 1015.7
20260507103029 18 173 22.5 33.8 0.00 0.05 0.05 74 1016.1
20260507102020 18 160 19.3 27.4 0.00 0.05 0.05 77 1015.8
20260507101128 17 148 20.9 25.7 0.00 0.05 0.05 79 1015.9
20260507100020 17 164 22.5 29.0 0.00 0.05 0.05 78 1016.1
20260507095029 18 185 19.3 29.0 0.00 0.05 0.05 77 1016.5
20260507094020 18 156 17.7 27.4 0.00 0.05 0.05 75 1015.9
20260507093028 18 145 19.3 29.0 0.00 0.05 0.05 75 1015.6
20260507090020 18 124 24.1 33.8 0.00 0.05 0.05 76 1015.4
20260507085028 18 137 25.7 37.0 0.00 0.05 0.05 76 1015.6
20260507084020 17 135 22.5 37.0 0.00 0.05 0.05 81 1015.7
20260507083028 17 136 20.9 30.6 0.00 0.05 0.05 83 1015.9
20260507082020 17 144 16.1 25.7 0.00 0.05 0.05 84 1016.3
20260507081049 17 135 14.5 22.5 0.00 0.05 0.05 85 1016.4
20260507080020 17 114 20.9 29.0 0.00 0.05 0.05 86 1015.9
20260507075028 17 130 12.9 22.5 0.00 0.05 0.05 86 1016.6
20260507074020 17 137 11.3 17.7 0.00 0.05 0.05 87 1016.9
20260507073029 17 134 11.3 17.7 0.00 0.05 0.05 88 1017.1
20260507072020 17 141 14.5 20.9 0.00 0.05 0.05 88 1017.0
20260507071028 17 145 12.9 17.7 0.00 0.05 0.05 89 1017.3
20260507070020 17 155 11.3 17.7 0.00 0.05 0.05 89 1017.3
20260507065029 17 143 9.7 17.7 0.00 0.05 0.05 90 1017.2
20260507064020 16 132 8.0 12.9 0.00 0.05 0.05 91 1017.2
20260507063028 16 130 8.0 12.9 0.00 0.05 0.05 92 1017.0
20260507062100 16 99 9.7 14.5 0.00 0.05 0.05 92 1016.8
20260507061029 16 100 9.7 16.1 0.00 0.05 0.05 93 1016.4
20260507060020 16 106 11.3 17.7 0.00 0.05 0.05 93 1016.7
20260507055029 16 132 9.7 14.5 0.00 0.05 0.05 94 1016.9
20260507054020 16 138 6.4 11.3 0.00 0.05 0.05 94 1016.8
20260507053029 15 120 6.4 11.3 0.00 0.05 0.05 94 1016.8
20260507052020 15 107 8.0 16.1 0.00 0.05 0.05 94 1016.3
20260507051029 15 108 12.9 17.7 0.00 0.05 0.05 94 1015.9
20260507050020 15 97 12.9 17.7 0.00 0.05 0.05 94 1015.4
20260507045028 15 78 11.3 17.7 0.00 0.05 0.05 94 1015.5
20260507044020 15 94 11.3 14.5 0.00 0.05 0.05 94 1016.1
20260507043028 15 99 8.0 11.3 0.03 0.05 0.05 94 1016.3
20260507042020 15 104 3.2 9.7 0.03 0.05 0.05 94 1016.1
20260507041029 15 84 4.8 9.7 0.03 0.05 0.05 94 1015.9
20260507040020 15 88 6.4 12.9 0.03 0.05 0.05 94 1015.8
20260507035028 15 83 8.0 12.9 0.03 0.05 0.05 94 1015.6
20260507034020 15 82 6.4 12.9 0.03 0.05 0.05 94 1015.9
20260507033030 15 80 3.2 6.4 0.00 0.03 0.03 94 1016.1
20260507032021 15 92 3.2 4.8 0.00 0.03 0.03 94 1016.0
20260507031031 15 99 4.8 9.7 0.00 0.03 0.03 94 1015.9
20260507025030 16 97 8.0 12.9 0.00 0.03 0.03 94 1015.7
20260507024021 16 107 4.8 6.4 0.00 0.03 0.03 94 1015.6
20260507023030 16 96 8.0 11.3 0.03 0.03 0.03 93 1015.6
20260507022042 16 95 6.4 9.7 0.03 0.03 0.03 93 1015.5
20260507021031 16 100 8.0 11.3 0.03 0.03 0.03 93 1015.2
20260507020022 16 101 6.4 11.3 0.03 0.03 0.03 92 1015.2
20260507015050 16 95 6.4 9.7 0.03 0.03 0.03 92 1015.2
20260507014021 16 60 8.0 12.9 0.03 0.03 0.03 92 1015.1
20260507013031 16 111 3.2 6.4 0.00 0.00 0.00 92 1015.3
20260507012022 16 148 6.4 6.4 0.00 0.00 0.00 91 1015.4
20260507011031 16 114 4.8 9.7 0.00 0.00 0.00 91 1015.3
20260507010022 16 119 6.4 9.7 0.00 0.00 0.00 91 1015.3
20260507005030 16 132 8.0 16.1 0.00 0.00 0.00 91 1015.0
20260507004022 16 131 8.0 12.9 0.00 0.00 0.00 91 1015.0
20260507003051 16 137 9.7 16.1 0.00 0.00 0.00 91 1014.8
20260507002022 16 150 11.3 16.1 0.00 0.00 0.00 91 1015.1
20260507001030 16 146 11.3 16.1 0.00 0.00 0.00 91 1015.0
20260507000042 16 142 11.3 16.1 0.00 0.00 0.00 91 1015.3
20260506235030 16 144 11.3 16.1 0.00 0.00 0.00 91 1015.5
20260506234040 16 141 9.7 14.5 0.00 0.00 0.00 91 1015.3
20260506233030 16 146 9.7 12.9 0.00 0.00 0.00 90 1015.3
20260506232021 16 144 9.7 14.5 0.00 0.00 0.00 90 1015.5
20260506231030 16 175 6.4 12.9 0.00 0.00 0.00 90 1015.6
20260506230022 16 176 11.3 20.9 0.00 0.00 0.00 90 1015.6
20260506225031 16 172 11.3 17.7 0.00 0.00 0.00 90 1015.5
20260506224022 16 169 12.9 17.7 0.00 0.00 0.00 90 1015.4
20260506223030 16 173 12.9 24.1 0.00 0.00 0.00 90 1015.3
20260506222022 16 177 11.3 22.5 0.00 0.00 0.00 90 1015.3
20260506221031 16 175 14.5 24.1 0.00 0.00 0.00 90 1015.1
20260506220022 16 175 16.1 24.1 0.00 0.00 0.00 90 1015.1
20260506215051 16 165 16.1 27.4 0.00 0.00 0.00 90 1015.1
20260506214022 16 160 17.7 25.7 0.00 0.00 0.00 90 1015.0
20260506213030 16 167 14.5 25.7 0.00 0.00 0.00 91 1015.0
20260506212022 16 167 19.3 29.0 0.00 0.00 0.00 91 1015.0
20260506211032 16 158 19.3 29.0 0.00 0.00 0.00 91 1015.0
20260506210023 16 159 17.7 25.7 0.00 0.00 0.00 91 1014.9
20260506205030 16 156 19.3 29.0 0.00 0.00 0.00 91 1014.9
20260506204022 16 162 17.7 27.4 0.00 0.00 0.00 91 1015.0
20260506203030 16 160 17.7 29.0 0.00 0.00 0.00 91 1015.1
20260506202022 16 152 17.7 27.4 0.00 0.00 0.00 90 1015.0
20260506201031 16 149 19.3 25.7 0.00 0.00 0.00 90 1014.9
20260506200022 16 150 17.7 24.1 0.00 0.00 0.00 90 1015.1
20260506195030 16 154 16.1 25.7 0.00 0.00 0.00 90 1014.9
20260506194022 16 156 17.7 24.1 0.00 0.00 0.00 90 1014.9
20260506193031 16 152 14.5 20.9 0.00 0.00 0.00 91 1014.9
20260506192042 16 148 16.1 25.7 0.00 0.00 0.00 90 1014.7
20260506191030 16 142 14.5 22.5 0.00 0.00 0.00 90 1014.7
20260506190022 16 147 14.5 22.5 0.00 0.00 0.00 90 1014.7
20260506185030 16 145 17.7 25.7 0.00 0.00 0.00 90 1014.8
20260506184022 16 143 14.5 20.9 0.00 0.00 0.00 90 1014.9
20260506183030 16 152 16.1 24.1 0.00 0.00 0.00 90 1014.9
20260506182022 16 150 16.1 24.1 0.00 0.00 0.00 90 1014.7
20260506181029 16 149 17.7 29.0 0.00 0.00 0.00 90 1014.8
20260506180026 16 149 16.1 27.4 0.00 0.00 0.00 90 1014.8
20260506175028 16 147 17.7 27.4 0.00 0.00 0.00 89 1014.6
20260506174020 16 145 17.7 25.7 0.00 0.00 0.00 89 1014.4
20260506173029 16 148 17.7 29.0 0.00 0.00 0.00 88 1014.4
20260506172020 16 142 17.7 27.4 0.00 0.00 0.00 88 1014.4
20260506171029 17 144 20.9 29.0 0.00 0.00 0.00 87 1014.5